Flag for Germany Weather past 2 weeks in Kamen, North Rhine-Westphalia, Germany

Now
52 °F

Sleet. Overcast.


Feels Like: 52 °F
Forecast: 56 / 75 °F
Wind: 1 mph from Northeast

Location: Muenster / Osnabrueck

Current Time: Sep 3, 2014 at 4:23:24 AM

Latest Report: Sep 3, 2014 at 3:50 AM


Visibility: N/A

Pressure: 30.24 "Hg

Humidity: 100%

Dew point: 52 °F

Location of KamenLocation

Historic Weather in Kamen — Graph

°F

Kamen temperature yesterday

Maximum temperature yesterday: 66 °F (at 3:20 PM)
Minimum temperature yesterday: 50 °F (at 5:50 AM)
Average temperature yesterday: 59 °F

Past Weeks' High & Low Weather Summary

 TemperatureHumidityPressure
High75 °F (Aug 28, 3:20 PM)100% (Aug 19, 3:50 AM)30.27 "Hg (Aug 19, 3:50 AM)
Low41 °F (Aug 25, 3:50 AM)40% (Aug 27, 6:20 PM)29.65 "Hg (Aug 26, 6:20 AM)
Average57 °F84%29.96 "Hg
* Reported Aug 19 3:20 AM — Sep 3 3:20 AM, Kamen, Weather by CustomWeather, © 2014

Note: Actual official high and low records may vary slightly from our data, if they occured in-between our weather recording intervals... More about our weather records

Advertising

Kamen weather history for previous 24 hours

 ConditionsComfort  
Time TempWeatherWind HumidityBarometerVisibility
3:20 AM
Sep 3
54 °FSleet. Overcast.3 mph100%30.24 "HgN/A
2:50 AM52 °FSleet. Overcast.3 mph100%30.24 "HgN/A
2:20 AM54 °FSleet. Overcast.2 mph100%30.24 "HgN/A
1:50 AM54 °FSleet. Overcast.3 mph100%30.24 "HgN/A
1:20 AM54 °FSleet. Overcast.3 mph100%30.24 "HgN/A
12:50 AM54 °FSleet. Overcast.3 mph100%30.24 "HgN/A
12:20 AM54 °FCool.2 mph100%30.27 "HgN/A
11:50 PM
Sep 2
54 °FSleet. Overcast.1 mph100%30.27 "HgN/A
11:20 PM55 °FSleet. Overcast.2 mph100%30.27 "HgN/A
10:50 PM55 °FCool.1 mph100%30.27 "HgN/A
10:20 PM57 °FFog.2 mph100%30.24 "HgN/A
9:50 PM59 °FClear.3 mph88%30.24 "Hg10 mi
9:20 PM61 °FClear.1 mph88%30.24 "Hg10 mi
8:50 PM61 °FPassing clouds.3 mph88%30.24 "HgN/A
8:20 PM63 °FPassing clouds.5 mph88%30.21 "HgN/A
7:50 PM64 °FScattered clouds.5 mph83%30.21 "HgN/A
7:20 PM64 °FPartly sunny.6 mph88%30.21 "HgN/A
6:50 PM64 °FPartly sunny.6 mph88%30.21 "HgN/A
6:20 PM66 °FPartly sunny.7 mph83%30.21 "HgN/A
5:50 PM66 °FPartly sunny.3 mph83%30.18 "HgN/A
5:20 PM66 °FPartly sunny.3 mph83%30.21 "HgN/A
4:50 PM66 °FBroken clouds.2 mph83%30.18 "HgN/A
4:20 PM66 °FPartly sunny.2 mph83%30.18 "Hg6 mi
3:50 PM64 °FBroken clouds.5 mph88%30.18 "Hg4 mi
3:20 PM66 °FBroken clouds.1 mph83%30.18 "Hg4 mi
2:50 PM64 °FPartly sunny.2 mph88%30.18 "Hg4 mi
2:20 PM64 °FFog.1 mph88%30.21 "Hg3 mi
1:50 PM63 °FFog.3 mph88%30.21 "Hg3 mi
1:20 PM61 °FFog.5 mph94%30.18 "Hg3 mi
12:50 PM61 °FFog.2 mph94%30.18 "Hg2 mi
12:20 PM61 °FFog.5 mph100%30.18 "Hg2 mi
11:50 AM59 °FFog.5 mph100%30.18 "Hg1 mi
11:20 AM59 °FFog.3 mph100%30.18 "Hg1 mi
10:50 AM57 °FDrizzle. Fog.5 mph100%30.18 "Hg2 mi
10:20 AM57 °FDrizzle. Fog.2 mph100%30.18 "Hg2 mi
9:50 AM57 °FDrizzle. Fog.3 mph100%30.18 "Hg2 mi
9:20 AM55 °FDrizzle. Fog.5 mph100%30.15 "Hg2 mi
8:50 AM55 °FDrizzle. Fog.5 mph100%30.15 "Hg2 mi
8:20 AM55 °FPartly sunny.5 mph94%30.15 "Hg4 mi
7:50 AM55 °FPartly sunny.3 mph100%30.15 "Hg4 mi
7:20 AM54 °FPassing clouds.3 mph100%30.15 "Hg4 mi
6:50 AM52 °FCool.1 mph100%30.15 "Hg4 mi
6:20 AM50 °FCool.3 mph100%30.15 "HgN/A
5:50 AM50 °FCool.3 mph100%30.12 "HgN/A
5:20 AM52 °FCool.1 mph100%30.15 "HgN/A
4:50 AM52 °FLight fog.2 mph100%30.15 "HgN/A
4:20 AM54 °FLight fog.3 mph100%30.15 "HgN/A
Weather by CustomWeather, © 2014

See weather overviewHow to use our weather pages